# Land Stadt Wetter Temperatur Luftdruck Luftfeuchtigkeit Sichtweite Windgeschwindigkeit Windrichtung Ortszeit
1 ca Montreal Snow -1 989 93 315 13 310 02.08.2018 14:22
2 ru Surgut Snow -14 992 85 7000 9 187 02.08.2018 14:23
3 us Fairbanks Clear -19 995 78 10000 6 1 02.08.2018 14:23
4 nz Wellington Clouds 20 995 60 10000 43 340 02.08.2018 14:23
5 us New York Clear 3 997 65 10000 19 270 02.08.2018 14:22
6 is Reykjavik Clouds 2 1000 87 10000 28 270 02.08.2018 14:22
7 us Nome Clouds -13 1000 72 10000 11 300 02.08.2018 14:23
8 tr Ankara Clouds -1 1002 93 10000 15 260 02.08.2018 14:23
9 gl Nuuk Rain -1 1004 59 1300 46 150 02.08.2018 14:22
10 pg Port Moresby Clouds 30 1004 68 10000 11 203 02.08.2018 14:21
11 uy Montevideo Clouds 21 1004 88 10000 17 210 02.08.2018 14:22
12 au Darwin Rain 33 1005 66 10000 17 310 02.08.2018 14:22
13 au Sydney Clouds 23 1005 66 10000 10 166 02.08.2018 14:22
14 us Chicago Clouds 2 1006 75 10000 11 290 02.08.2018 14:23
15 ar Buenos Aires Clouds 18 1007 77 10000 15 180 02.08.2018 14:22
16 sb Honiara Clouds 30 1007 69 10000 6 30 02.08.2018 14:22
17 ar Ushuaia Clouds 10 1007 76 10000 28 270 02.08.2018 14:22
18 no Hammerfest Clouds 2 1008 93 10000 9 260 02.08.2018 14:22
19 ru Moskau Snow -19 1008 77 10000 18 310 02.08.2018 14:22
20 bo Potisi Clouds 11 1008 73 10000 5 39 02.08.2018 14:22
21 id Jakarta Haze 31 1009 65 4000 9 300 02.08.2018 14:22
22 br Rio de Janeiro Clear 26 1009 73 10000 4 140 02.08.2018 14:22
23 ph Manila Clouds 30 1009 58 10000 9 100 02.08.2018 14:21
24 br Manaus Clear 25 1009 83 10000 7 360 02.08.2018 14:21
25 mv Male Clouds 30 1009 70 10000 6 200 02.08.2018 14:23
26 ke Nairobi Clouds 13 1010 91 10000 7 36 02.08.2018 14:22
27 ru Amderma Clouds -21 1010 91 4330 20 93 02.08.2018 14:23
28 fi Rovaniemi Clouds -8 1010 93 10000 9 250 02.08.2018 14:21
29 in Mumbai Haze 24 1010 73 1700 10 358 02.08.2018 14:22
30 fj Suva Rain 32 1010 66 10000 13 50 02.08.2018 14:21
31 cd Kisangani Clouds 23 1011 90 10000 4 214 02.08.2018 14:23
32 tr Istanbul Snow 1 1011 86 10000 33 350 02.08.2018 14:23
33 ec San Cristobal Clouds 24 1012 90 10000 13 171 02.08.2018 14:22
34 tr Alanya Clouds 8 1012 61 6000 19 230 02.08.2018 14:22
35 za Kapstadt Clear 19 1012 82 10000 11 220 02.08.2018 14:22
36 fr Nizza Clear 4 1013 75 10000 20 330 02.08.2018 14:22
37 qa Doha Haze 16 1013 88 4500 2 0 02.08.2018 14:23
38 ck Avarua Clouds 29 1013 65 10000 7 350 02.08.2018 14:22
39 gr Athen Clouds 0 1013 55 10000 19 330 02.08.2018 14:22
40 iq Bagdad Mist 11 1013 71 1400 6 130 02.08.2018 14:22
41 th Bangkok Clear 29 1013 69 10000 10 81 02.08.2018 14:21
42 eg Kairo Clear 14 1014 47 10000 17 220 02.08.2018 14:22
43 de Torfhaus Clouds -3 1014 81 10000 4 147 02.08.2018 14:22
44 bg Warna Clear -6 1014 68 10000 15 270 02.08.2018 14:21
45 us Los Angeles Clear 21 1014 34 10000 2 86 02.08.2018 14:22
46 de Emden Snow -1 1014 97 185 8 182 02.08.2018 14:21
47 bg Sofia Clear -9 1014 85 10000 7 300 02.08.2018 14:21
48 ua Kiew Clouds -20 1014 84 6000 7 240 02.08.2018 14:21
49 jp Tokio Clouds 8 1014 49 10000 11 30 02.08.2018 14:22
50 mn Ulaanbaatar Clear -23 1014 54 10000 4 264 02.08.2018 14:23
51 ae Dubai Fog 15 1014 100 100 7 170 02.08.2018 14:21
52 sa Riad Clear 19 1015 24 10000 15 230 02.08.2018 14:21
53 cl Santiago Clear 21 1015 35 10000 9 150 02.08.2018 14:23
54 de Trier Snow -3 1015 86 9000 3 218 02.08.2018 14:21
55 gb Glasgow Clouds 3 1015 93 10000 20 230 02.08.2018 14:21
56 de München Snow -5 1015 92 160 7 208 02.08.2018 14:21
57 au Perth Clear 33 1015 18 10000 35 70 02.08.2018 14:21
58 de Oberstdorf Snow -4 1015 87 124 2 140 02.08.2018 14:21
59 de Stuttgart Snow -3 1015 100 7000 2 0 02.08.2018 14:22
60 it Mailand Clouds 1 1015 100 10000 2 340 02.08.2018 14:21
61 us Honolulu Clouds 25 1015 65 10000 7 210 02.08.2018 14:22
62 au Alice Springs Clouds 26 1016 24 10000 22 90 02.08.2018 14:21
63 de Hannover Clear 0 1016 69 10000 9 150 02.08.2018 14:21
64 de Helgoland Clouds -1 1016 86 9000 9 160 02.08.2018 14:22
65 de Köln Snow -1 1016 86 8000 9 130 02.08.2018 14:21
66 de Braunschweig Clouds -4 1016 86 10000 6 100 02.08.2018 14:21
67 in Nagpur Haze 22 1016 40 4000 4 70 02.08.2018 14:21
68 do Santo Domingo Clouds 24 1016 94 10000 7 100 02.08.2018 14:21
69 at Wien Clouds -3 1016 68 10000 22 310 02.08.2018 14:22
70 de Nürnberg Clouds -5 1016 86 10000 7 110 02.08.2018 14:21
71 de Kassel Snow -3 1016 93 4100 7 180 02.08.2018 14:21
72 pe Cusco Clouds 11 1016 76 10000 2 330 02.08.2018 14:23
73 de Frankfurt Snow -2 1016 93 5000 7 190 02.08.2018 14:22
74 de Flensburg Clouds -2 1016 93 6000 13 140 02.08.2018 14:21
75 de Bremen Clouds -1 1016 80 10000 11 140 02.08.2018 14:22
76 de Hamburg Clouds -2 1017 86 10000 6 110 02.08.2018 14:21
77 us Tucson Clear 15 1017 11 10000 7 300 02.08.2018 14:21
78 bs Nassau Clouds 18 1017 72 10000 6 270 02.08.2018 14:22
79 de Dresden Clouds -4 1017 80 10000 2 0 02.08.2018 14:22
80 ru Anadyr Clear -23 1017 77 10000 4 0 02.08.2018 14:23
81 mg Antananarivo Clouds 18 1017 94 10000 7 300 02.08.2018 14:21
82 at Innsbruck Snow -8 1017 92 10000 2 0 02.08.2018 14:23
83 de Freiburg Snow 1 1017 90 76 8 170 02.08.2018 14:22
84 ch Andermatt Snow -5 1017 31 4302 15 319 02.08.2018 14:23
85 ch Bern Snow -1 1017 100 4200 2 0 02.08.2018 14:23
86 it Rom Clear 1 1017 74 10000 6 130 02.08.2018 14:23
87 de Berlin Clouds -2 1018 86 10000 7 260 02.08.2018 14:21
88 gb Manchester Clouds 5 1018 87 10000 17 290 02.08.2018 14:21
89 us Miami Clouds 15 1018 63 10000 6 0 02.08.2018 14:23
90 it Palermo Clouds 8 1018 77 10000 5 24 02.08.2018 14:22
91 fi Helsinki Snow -16 1018 92 4000 9 280 02.08.2018 14:21
92 gb London Clouds 6 1019 70 10000 20 280 02.08.2018 14:22
93 de Magdeburg Clouds -4 1019 89 10000 5 129 02.08.2018 14:22
94 af Kabul Haze 3 1019 44 7000 11 0 02.08.2018 14:21
95 se Stockholm Clouds -4 1019 93 10000 3 218 02.08.2018 14:23
96 no Oslo Clouds -10 1019 79 6728 3 38 02.08.2018 14:23
97 mx Veracruz Drizzle 19 1020 30 9656 10 117 02.08.2018 14:21
98 ar Esquel Clouds 11 1020 87 10000 7 290 02.08.2018 14:22
99 fr Paris Clouds 4 1020 93 10000 13 270 02.08.2018 14:22
100 us Denver Clouds -1 1021 61 10000 9 144 02.08.2018 14:21
101 us Las Vegas Clouds 14 1022 20 10000 9 10 02.08.2018 14:21
102 ad Andorra la Vella Clouds 3 1022 72 10000 2 0 02.08.2018 14:22
103 us Death Valley Clouds 17 1022 30 10000 7 356 02.08.2018 14:22
104 de Hiddensee Clouds -1 1023 89 10000 2 16 02.08.2018 14:21
105 cn Lhasa Clear 0 1023 53 10000 8 13 02.08.2018 14:22
106 ie Dublin Clouds 3 1023 93 10000 15 260 02.08.2018 14:21
107 in Jagatsukh Clear 10 1023 40 10000 12 28 02.08.2018 14:22
108 es Barcelona Clouds 7 1023 75 10000 13 310 02.08.2018 14:22
109 es Palma de Mallorca Clear 11 1024 87 10000 30 250 02.08.2018 14:22
110 es Las Palmas de Gran Canaria Clouds 15 1024 59 10000 19 360 02.08.2018 14:21
111 fr Bordeaux Mist 10 1024 100 3100 15 340 02.08.2018 14:21
112 ma Marrakesch Clear 4 1025 87 10000 9 90 02.08.2018 14:23
113 jp Nagasaki Clouds 6 1025 49 10000 35 320 02.08.2018 14:21
114 et Addis Abeba Clouds 13 1026 54 10000 7 310 02.08.2018 14:23
115 ma Casablanca Mist 3 1026 93 2000 4 0 02.08.2018 14:23
116 mx Mexiko Stadt Clouds 14 1026 82 10000 7 40 02.08.2018 14:21
117 ru Jakutsk Fog -41 1027 60 900 8 275 02.08.2018 14:22
118 cn Peking Clear -1 1027 19 10000 7 0 02.08.2018 14:23
119 vn Hanoi Clouds 16 1027 67 10000 19 40 02.08.2018 14:21
120 es Sevilla Clear 4 1028 87 10000 4 0 02.08.2018 14:22
121 es Tarifa Clouds 13 1028 77 10000 32 60 02.08.2018 14:21
122 es Madrid Clear -3 1028 100 7000 2 0 02.08.2018 14:23
123 pt Lissabon Clear 6 1029 93 10000 7 10 02.08.2018 14:22
124 kr Seoul Clear -4 1029 28 10000 4 310 02.08.2018 14:21
125 ru Werchojansk Clouds -42 1031 77 9213 1 150 02.08.2018 14:22
126 mn Uliastai Clear -12 1032 74 10000 5 78 02.08.2018 14:23
127 bo La Paz Clouds 7 1034 87 10000 4 0 02.08.2018 14:22
128 cn Shanghai Clear 5 1035 38 10000 18 360 02.08.2018 14:21